| time (UTC) | temp C | wind direction | speed KPH | gust KPH | rain 1hr cm | rain 24hr cm | rain mn cm | humidity % | barometer mb |
| 20260506035010 | 11 | 7 | 0.0 | 0.0 | 0.00 | 0.20 | 0.18 | 96 | 1018.4 |
| 20260506034009 | 11 | 7 | 0.0 | 0.0 | 0.00 | 0.20 | 0.18 | 96 | 1018.2 |
| 20260506033010 | 11 | 7 | 0.0 | 0.0 | 0.00 | 0.20 | 0.18 | 95 | 1018.1 |
| 20260506032009 | 12 | 7 | 0.0 | 0.0 | 0.00 | 0.20 | 0.18 | 95 | 1018.0 |
| 20260506031009 | 12 | 7 | 0.0 | 0.0 | 0.00 | 0.20 | 0.18 | 95 | 1017.9 |
| 20260506030010 | 12 | 7 | 0.0 | 0.0 | 0.00 | 0.20 | 0.18 | 94 | 1017.9 |
| 20260506025009 | 12 | 7 | 0.0 | 0.0 | 0.00 | 0.20 | 0.18 | 95 | 1017.9 |
| 20260506023010 | 12 | 7 | 0.0 | 0.0 | 0.00 | 0.20 | 0.18 | 94 | 1017.7 |
| 20260506022010 | 12 | 7 | 0.0 | 0.0 | 0.00 | 0.20 | 0.18 | 94 | 1017.7 |
| 20260506021010 | 12 | 7 | 0.0 | 0.0 | 0.00 | 0.53 | 0.18 | 94 | 1017.5 |
| 20260506015010 | 12 | 7 | 0.0 | 0.0 | 0.00 | 0.53 | 0.18 | 93 | 1017.7 |
| 20260506014010 | 12 | 7 | 0.0 | 0.0 | 0.00 | 0.53 | 0.18 | 93 | 1017.4 |
| 20260506013009 | 12 | 7 | 0.0 | 0.0 | 0.00 | 0.53 | 0.18 | 93 | 1017.5 |
| 20260506012010 | 12 | 7 | 0.0 | 0.0 | 0.00 | 0.53 | 0.18 | 94 | 1017.5 |
| 20260506005010 | 12 | 7 | 0.0 | 8.0 | 0.00 | 0.53 | 0.18 | 92 | 1017.5 |
| 20260506004009 | 12 | 16 | 0.0 | 9.7 | 0.00 | 0.53 | 0.18 | 91 | 1017.5 |
| 20260506003010 | 12 | 2 | 0.0 | 8.0 | 0.00 | 0.53 | 0.18 | 90 | 1017.5 |
| 20260506002010 | 12 | 24 | 0.0 | 0.0 | 0.00 | 0.53 | 0.18 | 88 | 1017.5 |
| 20260506001010 | 12 | 24 | 0.0 | 0.0 | 0.00 | 0.53 | 0.18 | 88 | 1017.4 |
| 20260506000011 | 12 | 24 | 0.0 | 9.7 | 0.00 | 0.53 | 0.18 | 87 | 1017.3 |
| 20260505235010 | 12 | 342 | 0.0 | 0.0 | 0.00 | 0.53 | 0.18 | 87 | 1017.3 |
| 20260505234010 | 12 | 342 | 0.0 | 4.8 | 0.00 | 0.53 | 0.18 | 88 | 1017.2 |
| 20260505233009 | 12 | 337 | 0.0 | 4.8 | 0.00 | 0.53 | 0.18 | 89 | 1017.2 |
| 20260505232010 | 12 | 21 | 0.0 | 9.7 | 0.00 | 0.53 | 0.18 | 89 | 1017.1 |
| 20260505231010 | 12 | 25 | 0.0 | 11.3 | 0.00 | 0.53 | 0.18 | 88 | 1017.2 |
| 20260505230010 | 12 | 334 | 0.0 | 9.7 | 0.00 | 0.53 | 0.18 | 87 | 1017.2 |
| 20260505225009 | 12 | 328 | 0.0 | 8.0 | 0.00 | 0.53 | 0.18 | 87 | 1017.2 |
| 20260505224009 | 12 | 304 | 0.0 | 0.0 | 0.00 | 0.53 | 0.18 | 88 | 1017.1 |
| 20260505222010 | 12 | 13 | 0.0 | 0.0 | 0.00 | 0.53 | 0.18 | 87 | 1017.4 |
| 20260505220009 | 12 | 11 | 1.6 | 8.0 | 0.00 | 0.53 | 0.18 | 88 | 1017.2 |
| 20260505215018 | 12 | 0 | 0.0 | 8.0 | 0.00 | 0.53 | 0.18 | 90 | 1017.3 |
| 20260505214010 | 12 | 349 | 1.6 | 9.7 | 0.00 | 0.53 | 0.18 | 90 | 1017.3 |
| 20260505213009 | 11 | 20 | 0.0 | 4.8 | 0.00 | 0.53 | 0.18 | 91 | 1017.3 |
| 20260505212010 | 11 | 312 | 0.0 | 9.7 | 0.00 | 0.53 | 0.18 | 91 | 1017.4 |
| 20260505211011 | 11 | 335 | 4.8 | 9.7 | 0.00 | 0.53 | 0.18 | 91 | 1017.4 |
| 20260505210009 | 11 | 357 | 3.2 | 9.7 | 0.00 | 0.53 | 0.18 | 91 | 1017.3 |
| 20260505205010 | 11 | 8 | 0.0 | 0.0 | 0.00 | 0.53 | 0.18 | 92 | 1017.3 |
| 20260505204009 | 11 | 8 | 4.8 | 11.3 | 0.00 | 0.53 | 0.18 | 91 | 1017.4 |
| 20260505202010 | 11 | 324 | 1.6 | 9.7 | 0.00 | 0.53 | 0.18 | 91 | 1017.2 |
| 20260505201010 | 11 | 265 | 3.2 | 9.7 | 0.00 | 0.53 | 0.18 | 92 | 1017.3 |
| 20260505200014 | 11 | 10 | 3.2 | 11.3 | 0.00 | 0.53 | 0.18 | 92 | 1017.3 |
| 20260505195009 | 11 | 16 | 3.2 | 11.3 | 0.00 | 0.53 | 0.18 | 92 | 1017.4 |
| 20260505194010 | 11 | 8 | 4.8 | 12.9 | 0.00 | 0.53 | 0.18 | 91 | 1017.4 |
| 20260505192009 | 11 | 30 | 1.6 | 14.5 | 0.00 | 0.53 | 0.18 | 91 | 1017.3 |
| 20260505191009 | 12 | 344 | 4.8 | 11.3 | 0.00 | 0.53 | 0.18 | 88 | 1017.3 |
| 20260505190009 | 12 | 52 | 0.0 | 9.7 | 0.00 | 0.53 | 0.18 | 91 | 1017.1 |
| 20260505185009 | 11 | 334 | 0.0 | 9.7 | 0.00 | 0.53 | 0.18 | 93 | 1017.0 |
| 20260505184010 | 11 | 335 | 0.0 | 8.0 | 0.00 | 0.53 | 0.18 | 96 | 1017.0 |
| 20260505183009 | 11 | 318 | 3.2 | 9.7 | 0.00 | 0.53 | 0.18 | 96 | 1017.0 |
| 20260505181010 | 11 | 294 | 0.0 | 0.0 | 0.00 | 0.53 | 0.18 | 93 | 1016.9 |
| 20260505175009 | 11 | 294 | 0.0 | 4.8 | 0.00 | 0.53 | 0.18 | 93 | 1016.6 |
| 20260505174009 | 11 | 291 | 1.6 | 9.7 | 0.00 | 0.53 | 0.18 | 96 | 1016.6 |
| 20260505173009 | 11 | 337 | 1.6 | 14.5 | 0.00 | 0.53 | 0.18 | 100 | 1016.2 |
| 20260505172010 | 10 | 0 | 0.0 | 4.8 | 0.00 | 0.53 | 0.18 | 100 | 1016.4 |
| 20260505171009 | 10 | 7 | 0.0 | 0.0 | 0.00 | 0.53 | 0.18 | 100 | 1016.1 |
| 20260505170009 | 10 | 3 | 3.2 | 12.9 | 0.00 | 0.53 | 0.18 | 100 | 1016.3 |
| 20260505165010 | 10 | 347 | 0.0 | 9.7 | 0.00 | 0.53 | 0.18 | 100 | 1016.0 |
| 20260505163009 | 10 | 349 | 0.0 | 3.2 | 0.00 | 0.53 | 0.18 | 100 | 1016.1 |
| 20260505162009 | 10 | 1 | 3.2 | 9.7 | 0.03 | 0.53 | 0.18 | 100 | 1016.1 |
| 20260505161010 | 10 | 0 | 0.0 | 0.0 | 0.03 | 0.53 | 0.18 | 100 | 1016.1 |
| 20260505153009 | 10 | 0 | 0.0 | 0.0 | 0.03 | 0.53 | 0.18 | 100 | 1015.8 |
| 20260505152009 | 10 | 0 | 0.0 | 0.0 | 0.00 | 0.51 | 0.15 | 100 | 1015.7 |
| 20260505151009 | 9 | 0 | 0.0 | 0.0 | 0.00 | 0.51 | 0.15 | 100 | 1015.7 |
| 20260505124009 | 8 | 0 | 0.0 | 0.0 | 0.00 | 0.61 | 0.15 | 100 | 1015.0 |
| 20260505123009 | 8 | 0 | 0.0 | 0.0 | 0.00 | 0.66 | 0.15 | 100 | 1014.9 |
| 20260505122010 | 8 | 0 | 0.0 | 0.0 | 0.00 | 0.71 | 0.15 | 100 | 1014.9 |
| 20260505121010 | 8 | 0 | 0.0 | 0.0 | 0.00 | 0.71 | 0.15 | 100 | 1014.8 |
| 20260505120010 | 8 | 0 | 0.0 | 0.0 | 0.00 | 0.74 | 0.15 | 100 | 1014.8 |
| 20260505115009 | 8 | 0 | 0.0 | 0.0 | 0.00 | 0.79 | 0.15 | 100 | 1014.8 |
| 20260505114009 | 8 | 0 | 0.0 | 0.0 | 0.00 | 0.81 | 0.15 | 100 | 1014.9 |
| 20260505113010 | 8 | 0 | 0.0 | 0.0 | 0.00 | 0.81 | 0.15 | 100 | 1014.9 |
| 20260505112009 | 8 | 0 | 0.0 | 0.0 | 0.00 | 0.81 | 0.15 | 100 | 1014.9 |
| 20260505111009 | 8 | 0 | 0.0 | 0.0 | 0.00 | 0.81 | 0.15 | 100 | 1015.0 |
| 20260505101009 | 8 | 0 | 0.0 | 0.0 | 0.05 | 0.81 | 0.15 | 100 | 1015.0 |
| 20260505100010 | 8 | 0 | 0.0 | 0.0 | 0.03 | 0.79 | 0.13 | 100 | 1015.1 |
| 20260505095010 | 8 | 0 | 0.0 | 0.0 | 0.03 | 0.79 | 0.13 | 100 | 1015.2 |
| 20260505093009 | 8 | 0 | 0.0 | 0.0 | 0.03 | 0.79 | 0.13 | 100 | 1015.2 |
| 20260505092010 | 8 | 0 | 0.0 | 0.0 | 0.03 | 0.76 | 0.10 | 100 | 1015.3 |
| 20260505091010 | 8 | 0 | 0.0 | 0.0 | 0.05 | 0.76 | 0.10 | 100 | 1015.5 |
| 20260505090009 | 8 | 0 | 0.0 | 0.0 | 0.05 | 0.76 | 0.10 | 100 | 1015.3 |
| 20260505085009 | 8 | 0 | 0.0 | 0.0 | 0.08 | 0.76 | 0.10 | 100 | 1015.5 |
| 20260505084010 | 8 | 0 | 0.0 | 0.0 | 0.08 | 0.76 | 0.10 | 100 | 1015.6 |
| 20260505083010 | 8 | 0 | 0.0 | 0.0 | 0.10 | 0.76 | 0.10 | 100 | 1015.6 |
| 20260505082010 | 9 | 0 | 0.0 | 0.0 | 0.08 | 0.74 | 0.08 | 100 | 1015.6 |
| 20260505081009 | 9 | 0 | 0.0 | 0.0 | 0.05 | 0.71 | 0.05 | 100 | 1015.6 |
| 20260505075010 | 9 | 0 | 0.0 | 0.0 | 0.03 | 0.69 | 0.03 | 100 | 1015.8 |
| 20260505074010 | 9 | 0 | 0.0 | 0.0 | 0.03 | 0.69 | 0.03 | 100 | 1015.8 |
| 20260505073009 | 9 | 0 | 0.0 | 0.0 | 0.00 | 0.66 | 0.00 | 100 | 1015.7 |
| 20260505072009 | 9 | 0 | 0.0 | 0.0 | 0.00 | 0.66 | 0.00 | 100 | 1015.8 |
| 20260505071009 | 9 | 0 | 0.0 | 0.0 | 0.03 | 0.66 | 0.00 | 100 | 1015.8 |
| 20260505070009 | 9 | 0 | 0.0 | 0.0 | 0.03 | 0.66 | 0.00 | 100 | 1015.8 |
| 20260505065009 | 9 | 0 | 0.0 | 0.0 | 0.03 | 0.66 | 0.66 | 100 | 1015.8 |
| 20260505063009 | 10 | 0 | 0.0 | 0.0 | 0.03 | 0.66 | 0.66 | 100 | 1015.8 |
| 20260505062009 | 10 | 0 | 0.0 | 0.0 | 0.03 | 0.66 | 0.66 | 100 | 1015.9 |
| 20260505061009 | 10 | 0 | 0.0 | 0.0 | 0.00 | 0.64 | 0.64 | 100 | 1015.9 |
| 20260505060009 | 10 | 0 | 0.0 | 0.0 | 0.00 | 0.64 | 0.64 | 100 | 1015.9 |
| 20260505054009 | 10 | 0 | 0.0 | 0.0 | 0.00 | 0.64 | 0.64 | 100 | 1016.0 |
| 20260505053009 | 10 | 0 | 0.0 | 0.0 | 0.00 | 0.64 | 0.64 | 100 | 1016.0 |
| 20260505041010 | 10 | 0 | 0.0 | 0.0 | 0.00 | 0.64 | 0.64 | 100 | 1016.0 |
| 20260505040009 | 10 | 0 | 0.0 | 0.0 | 0.00 | 0.64 | 0.64 | 100 | 1016.0 |